Weather History for MMDO - May, 2013

Change the Weather History Date:

Thursday, May 30, 2013

  Actual Average Record
Temperature  
Mean Temperature 80 °F -  
Max Temperature 99 °F 84 °F 99 °F (2013)
Min Temperature 60 °F 57 °F 50 °F (2005)
Cooling Degree Days 14    
Growing Degree Days 30 (Base 50)    
Moisture  
Dew Point 29 °F    
Average Humidity 20    
Maximum Humidity 55    
Minimum Humidity 5    
Precipitation  
Precipitation 0.00 in - - ()
Sea Level Pressure  
Sea Level Pressure 29.87 in    
Wind  
Wind Speed 6 mph ()    
Max Wind Speed 13 mph    
Max Gust Speed -    
Visibility 13.1 miles    
Events      
Averages and records for this station are not official NWS values.
T = Trace of Precipitation, MM = Missing Value Source: Averaged Metar Reports

Daily Weather History Graph

Daily Weather History Graph

Search for Another Location

Airport or City:

Trip Planner

Search our weather history database for the weather conditions in past years. The results will help you decide how hot, cold, wet, or windy it might be!

Date:

Astronomy

May. 30, 2013 Rise Set
Actual Time 7:10 AM CDT 8:41 PM CDT
Civil Twilight 6:45 AM CDT 9:06 PM CDT
Nautical Twilight 6:15 AM CDT 9:36 PM CDT
Astronomical Twilight 5:43 AM CDT 10:07 PM CDT
Moon 1:05 AM CDT (5/30) 12:56 PM CDT (5/30)
Length of Visible Light 14h 21m
Length of Day
13h 30m
Waning Gibbous, 62% of the Moon is Illuminated
May 30
Waning Gibbous
May 31
Last Quarter
Jun 8
New
Jun 16
First Quarter
Jun 23
Full

Hourly Weather History & Observations

Time (CDT) Temp. Dew Point Humidity Pressure Visibility Wind Dir Wind Speed Gust Speed Precip Events Conditions
12:50 AM 69 °F 44 °F 28% 29.51 in 6 mi SSW 4.5 mph - -  
4:00 AM 64 °F 44 °F 36%  in 6 mi SW 4.5 mph - -  
5:47 AM 60.8 °F 44.6 °F 55% 30.09 in 10.0 mi South 11.5 mph - N/A   Clear
6:43 AM 59.0 °F 42.8 °F 55% 29.64 in 10.0 mi SSW 10.4 mph - N/A   Clear
6:58 AM 62 °F 43 °F 38% 29.65 in 12 mi SSW 6.7 mph - -  
7:43 AM 60.8 °F 42.8 °F 52% 30.14 in 14.0 mi SSW 11.5 mph - N/A   Clear
8:45 AM 64.4 °F 39.2 °F 40% 30.16 in 14.0 mi SSW 12.7 mph - N/A   Clear
9:47 AM 69.8 °F 33.8 °F 27% 29.74 in 14.0 mi SSW 12.7 mph - N/A   Clear
9:52 AM 70 °F 39 °F 21% 29.79 in 12 mi SW 4.5 mph - -  
10:44 AM 73.4 °F 28.4 °F 19% 30.17 in 14.0 mi SSW 10.4 mph - N/A   Clear
11:41 AM 77.0 °F 19.4 °F 12% 30.16 in 14.0 mi West 4.6 mph - N/A   Clear
12:40 PM 86 °F 31 °F 7% 29.73 in 19 mi SSW 2.2 mph - -  
12:44 PM 82.4 °F 14.0 °F 8% 29.69 in 14.0 mi SW 2.3 mph - N/A   Clear
1:45 PM 84.2 °F 12.2 °F 7% 30.12 in 14.0 mi NNE 6.9 mph - N/A   Clear
2:40 PM 86.0 °F 12.2 °F 6% 30.10 in 14.0 mi Calm Calm - N/A   Clear
3:40 PM 92 °F 29 °F 5% 29.60 in 25 mi SSE 4.5 mph - -  
3:43 PM 87.8 °F 15.8 °F 7% 29.59 in 14.0 mi East 6.9 mph - N/A   Clear
4:40 PM 89.6 °F 15.8 °F 7% 30.04 in 14.0 mi ESE 8.1 mph - N/A   Clear
5:46 PM 89.6 °F 14.0 °F 6% 30.02 in 14.0 mi SW 6.9 mph - N/A   Clear
6:41 PM 89.6 °F 14.0 °F 6% 29.55 in 14.0 mi NE 3.5 mph - N/A   Clear
6:50 PM 92 °F 29 °F 5% 29.60 in 19 mi SSE 4.5 mph - -   Scattered Clouds
7:40 PM 89.6 °F 12.2 °F 6% 30.01 in 14.0 mi Calm Calm - N/A   Clear
8:53 PM 82.4 °F 15.8 °F 8% 30.04 in 14.0 mi Calm Calm - N/A   Clear
9:45 PM 80.6 °F 37.4 °F 21% 30.07 in 14.0 mi Calm Calm - N/A   Clear
9:55 PM 78 °F 49 °F 25% 29.46 in 9 mi WSW 4.5 mph - -  
10:46 PM 78.8 °F 37.4 °F 23% 30.10 in 14.0 mi Calm Calm - N/A   Clear